Lexington Weather

Lexington, Massachusetts, USA

78°F
8/3/2020 7:56am 
  • Lexington Conditions: Clear
  • Temperature: 77.5°F / 25.3°CWarmer 1.0°F than last hour.
  • Dew Point: 73.0°FDecreased 1.8°Fsince last hour.
  • Relative Humidity: 86%Decreased 9.0% since last hour.
  • Wind: Wind from S S 3 mph, 10-min avg: 3 mph, gust: 10 mph
  • Barometer: 29.85 in Steady
  • Visibility: 10 miles
  • Rain Today: 0.00 in
  •   
Southeast Middlesex County - Tropical Storm Watch - Tropical Cyclone Statement
 - SEE ALL NEARBY ALERTS -

Regional Weather Roundup
for Boston / Norton, MA

        
000
ASUS41 KBOX 312104
RWRBOX

REGIONAL WEATHER ROUNDUP
NATIONAL WEATHER SERVICE BOSTON/NORTON MA
500 PM EDT FRI JUL 31 2020

NOTE:  "FAIR" INDICATES FEW OR NO CLOUDS BELOW 12,000 FEET WITH NO 
SIGNIFICANT WEATHER AND/OR OBSTRUCTIONS TO VISIBILITY.

MAZALL-312200-
EASTERN MASSACHUSETTS
  
CITY           SKY/WX    TMP DP  RH WIND       PRES   REMARKS
BOSTON         PTSUNNY   76  66  71 E10       29.80S                  
BEVERLY        SUNNY     79  63  57 SE9       29.79S                  
LAWRENCE       SUNNY     84  64  50 E7        29.80S                  
BEDFORD        MOSUNNY   84  64  50 E8        29.77S                  
BLUE HILL      NOT AVBL                                               
NORWOOD        SUNNY     85  62  46 NE7       29.78S                  
MARSHFIELD     SUNNY     77  72  83 NE8       29.80S                  
PLYMOUTH       MOSUNNY   78  65  63 E7        29.80R                  
TAUNTON        PTSUNNY   82  66  58 E5        29.78R                  
NEW BEDFORD    PTSUNNY   81  70  69 S8        29.78R                  
$$

MAZALL-312200-
CAPE COD AND THE ISLANDS
  
CITY           SKY/WX    TMP DP  RH WIND       PRES   REMARKS
FALMOUTH       NOT AVBL                                               
HYANNIS        PTSUNNY   80  66  62 N8        29.79R                  
CHATHAM        CLOUDY    77  65  66 E6        29.81S                  
PROVINCETOWN   MOSUNNY   78  69  73 NE10      29.81R                  
NANTUCKET      CLOUDY    74  69  85 S5        29.80R                  
MARTHAS VNYRD  CLOUDY    76  69  79 S5        29.79S                  
$$
 
MAZALL-312200-
CENTRAL AND WESTERN MASSACHUSETTS
  
CITY           SKY/WX    TMP DP  RH WIND       PRES   REMARKS
WORCESTER      SUNNY     83  58  42 VRB3      29.83S                  
FITCHBURG      SUNNY     86  55  34 CALM      29.79F                  
ORANGE         SUNNY     87  57  35 N6        29.81S                  
SPRINGFIELD    MOSUNNY   86  59  39 N5        29.78S                  
WESTFIELD      SUNNY     88  57  34 NE6       29.79R                  
NORTH ADAMS    MOSUNNY   84  59  42 MISG      29.81S                  
PITTSFIELD     MOSUNNY   84  61  45 W8        29.83S                  
$$
 
RIZALL-312200-
RHODE ISLAND
  
CITY           SKY/WX    TMP DP  RH WIND       PRES   REMARKS
PROVIDENCE     MOSUNNY   82  70  66 S8        29.79R                  
NEWPORT        MOSUNNY   80  69  69 S8        29.79S                  
BLOCK ISLAND   CLOUDY    74  67  78 S6        29.81S                  
SMITHFIELD     PTSUNNY   86  64  47 VRB5      29.80S                  
WESTERLY       MOSUNNY   80  65  59 S6        29.80S                  
$$
 
CTZALL-312200-
CONNECTICUT
  
CITY           SKY/WX    TMP DP  RH WIND       PRES   REMARKS
BRADLEY INTL   PTSUNNY   87  54  32 VRB3      29.77F                  
HARTFORD       MOSUNNY   86  65  49 VRB5      29.77S                  
BRIDGEPORT     MOSUNNY   79  68  69 S6        29.80S                  
DANBURY        MOSUNNY   82  65  56 S5        29.81S                  
GROTON         MOSUNNY   75  69  81 S9        29.79S                  
NEW HAVEN      MOSUNNY   80  70  71 S7        29.80S                  
CHESTER        NOT AVBL                                               
MERIDEN        MOSUNNY   84  64  50 VRB5      29.78S                  
WILLIMANTIC    PTSUNNY   83  64  52 S6        29.79S                  
OXFORD         MOSUNNY   82  67  60 SW5       29.82S                  
$$

MEZ002-015-021-024-NHZ003-005-008-011-012-014-VTZ005-008-312200-
NORTHERN NEW ENGLAND
  
CITY           SKY/WX    TMP DP  RH WIND       PRES   REMARKS
PORTLAND ME    MOSUNNY   82  62  50 S6        29.80S                  
BANGOR ME      MOSUNNY   83  59  44 NW9       29.79S                  
CONCORD NH     SUNNY     86  58  38 NW7       29.79S                  
MANCHESTER NH  MOSUNNY   90  55  30 N12       29.77S                  
NASHUA NH      MOSUNNY   88  58  36 N8        29.79S                  
PORTSMOUTH NH  PTSUNNY   80  61  50 SE7       29.78                   
JAFFREY NH     PTSUNNY   84  57  39 N3        29.84S                  
KEENE NH       SUNNY     85  56  37 N7        29.80F                  
BURLINGTON VT  MOSUNNY   84  55  36 N12       29.85R                  
MT. WASHINGTON NOT AVBL                                               
$$

NYZ052-076-312200-
EASTERN NEW YORK
  
CITY           SKY/WX    TMP DP  RH WIND       PRES   REMARKS
ALBANY         MOSUNNY   82  58  43 NW7       29.81F                  
NEW YORK CITY  PTSUNNY   83  66  56 CALM      29.79S                  
$$
 
ANZALL-312200-
MARINE OBSERVATIONS
  
STATION/POSITION TIME  TEMP    WIND        PRES    VSBY  WAVE
                       AIR SEA DIR/SP/G                  HT/PER
                 (UTC) (F)     (DEG/KT/KT) (MB)    (MI)  (FT/S)
BOSTON BUOY      2050   74 75   80/  8/ 10 1007.7F         1/10
BUZZARDS BAY     2000          220/  4/  4 1009.9F
NANTUCKET SOUND  2040      76  200/  4/  6 1008.2R
MASS BAY-STELLWA NOT AVBL
ISLE OF SHOALS   2000   72     130/  6/  6 1008.7F
S OF BLOCK IS    2026      75                N/A           2/ 6
$$

......................KEY.........................
  SKY/WX - SKY CONDITION/PRESENT WEATHER
  TMP    - TEMPERATURE IN FAHRENHEIT
  DWPT   - DEWPOINT IN FAHRENHEIT
  RH     - RELATIVE HUMIDITY IN PERCENT
  WIND   - DIRECTION AND SPEED IN MPH
  PRES   - MEAN SEA LEVEL PRESSURE IN INCHES OF HG
  WCI    - WIND CHILL INDEX
  VSB    - VISIBILITY IN MILES
  HX     - HEAT INDEX
  TC     - TEMPERATURE IN CELSIUS
  VRB    - VARIABLE WIND DIRECTION
  N/A    - NOT AVAILABLE
  
      

Other recent Regional Weather Roundups

Mon Aug 3, 7:04am

Mon Aug 3, 6:04am

Mon Aug 3, 5:04am

Mon Aug 3, 4:04am

Mon Aug 3, 3:04am

Mon Aug 3, 2:04am

Mon Aug 3, 1:04am

Mon Aug 3, 12:05am

Sun Aug 2, 11:04pm

Sun Aug 2, 10:04pm

Sun Aug 2, 9:04pm

Sun Aug 2, 8:04pm

Sun Aug 2, 7:04pm

Sun Aug 2, 6:04pm

Sun Aug 2, 5:04pm

Sun Aug 2, 4:05pm

Sun Aug 2, 3:04pm

Sun Aug 2, 2:05pm

Sun Aug 2, 1:04pm

Sun Aug 2, 12:04pm

Sun Aug 2, 11:04am

Sun Aug 2, 10:04am

Sun Aug 2, 9:05am

Sun Aug 2, 8:05am

Sun Aug 2, 7:04am

Sun Aug 2, 6:04am

Sun Aug 2, 5:04am

Sun Aug 2, 4:05am

Sun Aug 2, 3:04am

Sun Aug 2, 2:04am

Sun Aug 2, 1:04am

Sun Aug 2, 12:05am

Sat Aug 1, 11:04pm

Sat Aug 1, 10:04pm

Sat Aug 1, 9:04pm

Sat Aug 1, 8:05pm

Sat Aug 1, 7:04pm

Sat Aug 1, 6:04pm

Sat Aug 1, 5:05pm

Sat Aug 1, 4:05pm

Sat Aug 1, 3:04pm

Sat Aug 1, 2:04pm

Sat Aug 1, 1:04pm

Sat Aug 1, 12:04pm

Sat Aug 1, 11:05am

Sat Aug 1, 10:05am

Sat Aug 1, 9:04am

Sat Aug 1, 8:04am

Sat Aug 1, 7:04am

Sat Aug 1, 6:04am

Sat Aug 1, 5:04am

Sat Aug 1, 4:05am

Sat Aug 1, 3:04am

Sat Aug 1, 2:04am

Sat Aug 1, 1:04am

Sat Aug 1, 12:05am

Fri Jul 31, 11:05pm

Fri Jul 31, 10:04pm

Fri Jul 31, 9:04pm

Fri Jul 31, 8:05pm

Fri Jul 31, 7:05pm

Fri Jul 31, 6:04pm

Fri Jul 31, 4:05pm

Fri Jul 31, 3:04pm

Fri Jul 31, 2:05pm

Fri Jul 31, 1:04pm

Fri Jul 31, 12:04pm

Fri Jul 31, 11:04am

Fri Jul 31, 10:04am

Fri Jul 31, 9:04am

Fri Jul 31, 8:04am

Fri Jul 31, 7:04am

Fri Jul 31, 6:04am

Fri Jul 31, 5:04am

Fri Jul 31, 4:04am

Fri Jul 31, 3:04am

Fri Jul 31, 2:04am

Fri Jul 31, 1:05am

Fri Jul 31, 12:04am

Thu Jul 30, 11:04pm

Thu Jul 30, 10:04pm

Thu Jul 30, 9:04pm

Thu Jul 30, 8:04pm

Thu Jul 30, 7:05pm

Thu Jul 30, 6:04pm

Thu Jul 30, 5:04pm

Thu Jul 30, 4:05pm

Thu Jul 30, 3:04pm

Thu Jul 30, 2:05pm

Thu Jul 30, 1:04pm

Thu Jul 30, 12:04pm

Thu Jul 30, 11:04am

Thu Jul 30, 10:05am

Thu Jul 30, 9:04am

Thu Jul 30, 8:04am

Thu Jul 30, 7:04am

Thu Jul 30, 6:04am

Thu Jul 30, 5:04am

Thu Jul 30, 4:04am

Thu Jul 30, 3:04am

Thu Jul 30, 2:04am

Thu Jul 30, 1:04am

Thu Jul 30, 12:04am

Wed Jul 29, 11:04pm

Wed Jul 29, 10:04pm

Wed Jul 29, 9:04pm

Wed Jul 29, 8:04pm

Wed Jul 29, 7:05pm

Wed Jul 29, 6:05pm

Wed Jul 29, 5:04pm

Wed Jul 29, 4:04pm

Wed Jul 29, 3:04pm

Wed Jul 29, 2:04pm

Wed Jul 29, 1:05pm

Wed Jul 29, 12:05pm

Wed Jul 29, 11:04am

Wed Jul 29, 10:04am

Wed Jul 29, 9:04am

Wed Jul 29, 8:04am

Wed Jul 29, 7:04am

Wed Jul 29, 6:04am

Wed Jul 29, 5:04am

Wed Jul 29, 4:04am

Wed Jul 29, 3:04am

Wed Jul 29, 2:04am

Wed Jul 29, 1:04am

Wed Jul 29, 12:05am

Tue Jul 28, 11:05pm

Tue Jul 28, 10:05pm

Tue Jul 28, 9:04pm

Tue Jul 28, 8:04pm

Tue Jul 28, 7:04pm

Tue Jul 28, 6:04pm

Tue Jul 28, 5:04pm

Tue Jul 28, 4:05pm

Tue Jul 28, 3:05pm

Tue Jul 28, 2:04pm

Tue Jul 28, 1:05pm

Tue Jul 28, 12:04pm

Tue Jul 28, 11:04am

Tue Jul 28, 10:04am

Tue Jul 28, 9:04am

Tue Jul 28, 8:04am

Tue Jul 28, 7:04am

Tue Jul 28, 6:04am

Tue Jul 28, 5:04am

Tue Jul 28, 4:04am

Tue Jul 28, 3:04am

Tue Jul 28, 2:04am

Tue Jul 28, 1:04am

Tue Jul 28, 12:05am

Mon Jul 27, 11:04pm

Mon Jul 27, 10:05pm

Mon Jul 27, 9:05pm

Mon Jul 27, 8:04pm

Mon Jul 27, 7:04pm

Mon Jul 27, 6:05pm

Mon Jul 27, 5:05pm

Mon Jul 27, 4:04pm

Mon Jul 27, 3:04pm

Mon Jul 27, 2:04pm

Mon Jul 27, 1:04pm

Mon Jul 27, 12:04pm

Mon Jul 27, 11:04am

Mon Jul 27, 10:04am

Mon Jul 27, 9:04am

Mon Jul 27, 8:04am

Meta data:

ID: e0c42d92-685b-43ed-bddd-c60ba1fa5d3b
Link: https://api.weather.gov/products/e0c42d92-685b-43ed-bddd-c60ba1fa5d3b